Time,TemperatureF,DewpointF,PressureIn,WindDirection,WindDirectionDegrees,WindSpeedMPH,WindSpeedGustMPH,Humidity,HourlyPrecipIn,Conditions,Clouds,dailyrainin,SoftwareType,DateUTC
2013-07-01 00:00:00,66.5,60.2,29.77,SSW,200,2.0,3.0,80,0.00,,,0.03,VWS V14.01,2013-07-01 04:00:00,
2013-07-01 00:01:00,66.5,60.2,29.77,SSW,198,2.0,3.0,80,0.00,,,0.03,VWS V14.01,2013-07-01 04:01:00,
2013-07-01 00:06:00,66.6,60.2,29.77,SSW,198,0.0,2.0,80,0.00,,,0.00,VWS V14.01,2013-07-01 04:06:00,
2013-07-01 00:11:00,66.5,60.2,29.77,SSW,194,1.0,2.0,80,0.00,,,0.00,VWS V14.01,2013-07-01 04:11:00,
2013-07-01 00:16:00,66.4,59.7,29.78,SSW,194,0.0,2.0,79,0.00,,,0.00,VWS V14.01,2013-07-01 04:16:00,
2013-07-01 00:21:00,66.3,60.0,29.78,SSW,194,0.0,2.0,80,0.00,,,0.00,VWS V14.01,2013-07-01 04:21:00,
2013-07-01 00:26:00,66.2,59.9,29.78,South,187,0.0,2.0,80,0.00,,,0.00,VWS V14.01,2013-07-01 04:26:00,
2013-07-01 00:31:00,66.0,59.7,29.78,South,191,0.0,2.0,80,0.00,,,0.00,VWS V14.01,2013-07-01 04:31:00,
2013-07-01 00:36:00,65.9,59.6,29.78,South,191,0.0,2.0,80,0.00,,,0.00,VWS V14.01,2013-07-01 04:36:00,
2013-07-01 00:41:00,65.8,59.5,29.77,SSW,196,0.0,3.0,80,0.00,,,0.00,VWS V14.01,2013-07-01 04:41:00,
2013-07-01 00:46:00,65.7,59.4,29.77,South,191,0.0,3.0,80,0.00,,,0.00,VWS V14.01,2013-07-01 04:46:00,
2013-07-01 00:51:00,65.6,59.3,29.77,South,191,2.0,3.0,80,0.00,,,0.00,VWS V14.01,2013-07-01 04:51:00,
2013-07-01 00:56:00,65.4,59.4,29.77,South,191,0.0,3.0,81,0.00,,,0.00,VWS V14.01,2013-07-01 04:56:00,
2013-07-01 01:00:00,65.2,59.2,29.77,SSW,194,2.0,3.0,81,0.00,,,0.00,VWS V14.01,2013-07-01 05:00:00,
2013-07-01 01:01:00,65.2,59.2,29.77,SSW,193,2.0,3.0,81,0.00,,,0.00,VWS V14.01,2013-07-01 05:01:00,
2013-07-01 01:06:00,65.1,59.1,29.77,SSW,195,0.0,1.0,81,0.00,,,0.00,VWS V14.01,2013-07-01 05:06:00,
2013-07-01 01:11:00,65.0,59.0,29.77,South,191,0.0,2.0,81,0.00,,,0.00,VWS V14.01,2013-07-01 05:11:00,
2013-07-01 01:16:00,64.9,58.9,29.77,South,191,0.0,2.0,81,0.00,,,0.00,VWS V14.01,2013-07-01 05:16:00,
2013-07-01 01:21:00,64.9,58.9,29.77,South,191,0.0,2.0,81,0.00,,,0.00,VWS V14.01,2013-07-01 05:21:00,
2013-07-01 01:26:00,64.8,58.5,29.77,South,190,0.0,2.0,80,0.00,,,0.00,VWS V14.01,2013-07-01 05:26:00,
2013-07-01 01:31:00,64.9,58.6,29.77,SSW,193,3.0,3.0,80,0.00,,,0.00,VWS V14.01,2013-07-01 05:31:00,
2013-07-01 01:36:00,64.9,58.2,29.77,South,187,2.0,3.0,79,0.00,,,0.00,VWS V14.01,2013-07-01 05:36:00,
2013-07-01 01:41:00,64.8,58.1,29.77,South,187,1.0,3.0,79,0.00,,,0.00,VWS V14.01,2013-07-01 05:41:00,
2013-07-01 01:46:00,64.7,57.7,29.77,South,191,0.0,3.0,78,0.00,,,0.00,VWS V14.01,2013-07-01 05:46:00,
2013-07-01 01:51:00,64.6,57.6,29.77,South,191,0.0,3.0,78,0.00,,,0.00,VWS V14.01,2013-07-01 05:51:00,
2013-07-01 01:56:00,64.7,57.3,29.77,South,183,1.0,4.0,77,0.00,,,0.00,VWS V14.01,2013-07-01 05:56:00,
2013-07-01 02:00:00,64.6,57.2,29.77,South,191,1.0,4.0,77,0.00,,,0.00,VWS V14.01,2013-07-01 06:00:00,
2013-07-01 02:01:00,64.6,57.2,29.77,South,191,1.0,4.0,77,0.00,,,0.00,VWS V14.01,2013-07-01 06:01:00,
2013-07-01 02:06:00,64.5,57.1,29.77,SSW,193,0.0,2.0,77,0.00,,,0.00,VWS V14.01,2013-07-01 06:06:00,
2013-07-01 02:11:00,64.5,57.5,29.77,SSW,193,0.0,2.0,78,0.00,,,0.00,VWS V14.01,2013-07-01 06:11:00,
2013-07-01 02:16:00,64.3,57.3,29.77,SSW,193,0.0,2.0,78,0.00,,,0.00,VWS V14.01,2013-07-01 06:16:00,
2013-07-01 02:21:00,64.3,57.3,29.77,SSW,193,0.0,2.0,78,0.00,,,0.00,VWS V14.01,2013-07-01 06:21:00,
2013-07-01 02:26:00,64.3,57.7,29.77,SSW,197,0.0,3.0,79,0.00,,,0.00,VWS V14.01,2013-07-01 06:26:00,
2013-07-01 02:31:00,64.2,57.6,29.77,South,183,0.0,3.0,79,0.00,,,0.00,VWS V14.01,2013-07-01 06:31:00,
2013-07-01 02:36:00,64.1,57.8,29.77,South,186,0.0,3.0,80,0.00,,,0.00,VWS V14.01,2013-07-01 06:36:00,
2013-07-01 02:41:00,64.1,57.8,29.77,South,185,0.0,3.0,80,0.00,,,0.00,VWS V14.01,2013-07-01 06:41:00,
2013-07-01 02:46:00,64.0,58.1,29.77,South,186,0.0,3.0,81,0.00,,,0.00,VWS V14.01,2013-07-01 06:46:00,
2013-07-01 02:51:00,63.9,58.3,29.77,South,186,0.0,3.0,82,0.00,,,0.00,VWS V14.01,2013-07-01 06:51:00,
2013-07-01 02:56:00,63.8,58.2,29.76,South,186,0.0,3.0,82,0.00,,,0.00,VWS V14.01,2013-07-01 06:56:00,
2013-07-01 03:01:00,63.7,58.5,29.76,South,188,0.0,3.0,83,0.00,,,0.00,VWS V14.01,2013-07-01 07:01:00,
2013-07-01 03:06:00,63.6,58.3,29.76,South,188,0.0,3.0,83,0.00,,,0.00,VWS V14.01,2013-07-01 07:06:00,
2013-07-01 03:11:00,63.4,58.2,29.77,South,189,0.0,3.0,83,0.00,,,0.00,VWS V14.01,2013-07-01 07:11:00,
2013-07-01 03:16:00,63.3,58.4,29.77,South,188,0.0,3.0,84,0.00,,,0.00,VWS V14.01,2013-07-01 07:16:00,
2013-07-01 03:21:00,63.0,58.4,29.77,South,188,0.0,3.0,85,0.00,,,0.00,VWS V14.01,2013-07-01 07:21:00,
2013-07-01 03:26:00,62.9,58.0,29.77,South,188,0.0,3.0,84,0.00,,,0.00,VWS V14.01,2013-07-01 07:26:00,
2013-07-01 03:31:00,62.8,57.9,29.77,NNW,337,0.0,3.0,84,0.00,,,0.00,VWS V14.01,2013-07-01 07:31:00,
2013-07-01 03:36:00,62.7,57.5,29.77,NNE,21,0.0,3.0,83,0.00,,,0.00,VWS V14.01,2013-07-01 07:36:00,
2013-07-01 03:41:00,62.7,56.8,29.77,NNE,23,0.0,3.0,81,0.00,,,0.00,VWS V14.01,2013-07-01 07:41:00,
2013-07-01 03:46:00,62.7,56.5,29.76,NNE,23,0.0,3.0,80,0.00,,,0.00,VWS V14.01,2013-07-01 07:46:00,
2013-07-01 03:51:00,62.6,56.0,29.76,NNE,28,0.0,3.0,79,0.00,,,0.00,VWS V14.01,2013-07-01 07:51:00,
2013-07-01 03:56:00,62.6,56.0,29.76,NNE,29,0.0,3.0,79,0.00,,,0.00,VWS V14.01,2013-07-01 07:56:00,
2013-07-01 04:00:00,62.5,56.3,29.76,NNE,28,0.0,3.0,80,0.00,,,0.00,VWS V14.01,2013-07-01 08:00:00,
2013-07-01 04:01:00,62.5,56.2,29.76,NNE,29,0.0,3.0,80,0.00,,,0.00,VWS V14.01,2013-07-01 08:01:00,
2013-07-01 04:06:00,62.4,56.2,29.76,NNE,29,0.0,0.0,80,0.00,,,0.00,VWS V14.01,2013-07-01 08:06:00,
2013-07-01 04:11:00,62.3,56.1,29.76,NNE,28,0.0,1.0,80,0.00,,,0.00,VWS V14.01,2013-07-01 08:11:00,
2013-07-01 04:16:00,62.2,56.0,29.77,NNE,29,0.0,1.0,80,0.00,,,0.00,VWS V14.01,2013-07-01 08:16:00,
2013-07-01 04:21:00,62.1,55.5,29.77,NE,43,0.0,1.0,79,0.00,,,0.00,VWS V14.01,2013-07-01 08:21:00,
2013-07-01 04:26:00,62.0,55.4,29.77,ESE,117,1.0,1.0,79,0.00,,,0.00,VWS V14.01,2013-07-01 08:26:00,
2013-07-01 04:31:00,62.0,55.4,29.76,SSW,200,0.0,2.0,79,0.00,,,0.00,VWS V14.01,2013-07-01 08:31:00,
2013-07-01 04:36:00,62.0,55.4,29.76,South,169,0.0,2.0,79,0.00,,,0.00,VWS V14.01,2013-07-01 08:36:00,
2013-07-01 04:41:00,62.0,55.4,29.76,SSW,204,0.0,4.0,79,0.00,,,0.00,VWS V14.01,2013-07-01 08:41:00,
2013-07-01 04:46:00,61.9,55.3,29.77,SSW,193,1.0,4.0,79,0.00,,,0.00,VWS V14.01,2013-07-01 08:46:00,
2013-07-01 04:51:00,61.9,55.3,29.77,SSW,193,0.0,4.0,79,0.00,,,0.00,VWS V14.01,2013-07-01 08:51:00,
2013-07-01 04:56:00,61.8,55.2,29.77,SSW,193,0.0,4.0,79,0.00,,,0.00,VWS V14.01,2013-07-01 08:56:00,
2013-07-01 05:00:00,61.8,55.2,29.77,SSW,193,0.0,4.0,79,0.00,,,0.00,VWS V14.01,2013-07-01 09:00:00,
2013-07-01 05:01:00,61.8,55.2,29.77,SSW,193,1.0,4.0,79,0.00,,,0.00,VWS V14.01,2013-07-01 09:01:00,
2013-07-01 05:06:00,61.7,55.1,29.77,SSW,194,0.0,1.0,79,0.00,,,0.00,VWS V14.01,2013-07-01 09:06:00,
2013-07-01 05:11:00,61.7,55.1,29.77,SW,218,0.0,2.0,79,0.00,,,0.00,VWS V14.01,2013-07-01 09:11:00,
2013-07-01 05:16:00,61.7,55.5,29.77,SW,219,0.0,2.0,80,0.00,,,0.00,VWS V14.01,2013-07-01 09:16:00,
2013-07-01 05:21:00,61.7,55.5,29.77,SW,216,0.0,2.0,80,0.00,,,0.00,VWS V14.01,2013-07-01 09:21:00,
2013-07-01 05:26:00,61.7,55.5,29.78,SW,214,0.0,2.0,80,0.00,,,0.00,VWS V14.01,2013-07-01 09:26:00,
2013-07-01 05:31:00,61.6,55.7,29.78,NNE,30,0.0,3.0,81,0.00,,,0.00,VWS V14.01,2013-07-01 09:31:00,
2013-07-01 05:36:00,61.6,55.7,29.78,NNE,30,1.0,3.0,81,0.00,,,0.00,VWS V14.01,2013-07-01 09:36:00,
2013-07-01 05:41:00,61.6,55.7,29.78,SSW,210,0.0,3.0,81,0.00,,,0.00,VWS V14.01,2013-07-01 09:41:00,
2013-07-01 05:46:00,61.7,56.2,29.78,NNW,332,0.0,3.0,82,0.00,,,0.00,VWS V14.01,2013-07-01 09:46:00,
2013-07-01 05:51:00,61.8,56.2,29.78,WSW,240,0.0,3.0,82,0.00,,,0.00,VWS V14.01,2013-07-01 09:51:00,
2013-07-01 05:56:00,61.8,56.2,29.78,SSW,198,0.0,3.0,82,0.00,,,0.00,VWS V14.01,2013-07-01 09:56:00,
2013-07-01 06:00:00,61.9,56.7,29.79,SSW,200,0.0,3.0,83,0.00,,,0.00,VWS V14.01,2013-07-01 10:00:00,
2013-07-01 06:01:00,61.8,56.2,29.78,SSW,198,0.0,3.0,82,0.00,,,0.00,VWS V14.01,2013-07-01 10:01:00,
2013-07-01 06:06:00,61.9,56.7,29.79,SSW,200,0.0,1.0,83,0.00,,,0.00,VWS V14.01,2013-07-01 10:06:00,
2013-07-01 06:11:00,61.8,56.6,29.78,SSW,200,0.0,1.0,83,0.00,,,0.00,VWS V14.01,2013-07-01 10:11:00,
2013-07-01 06:16:00,61.8,56.6,29.78,West,276,0.0,1.0,83,0.00,,,0.00,VWS V14.01,2013-07-01 10:16:00,
2013-07-01 06:21:00,61.7,56.5,29.79,NE,47,0.0,2.0,83,0.00,,,0.00,VWS V14.01,2013-07-01 10:21:00,
2013-07-01 06:26:00,61.6,56.7,29.79,West,276,0.0,2.0,84,0.00,,,0.00,VWS V14.01,2013-07-01 10:26:00,
2013-07-01 06:31:00,61.6,56.7,29.79,West,276,0.0,2.0,84,0.00,,,0.00,VWS V14.01,2013-07-01 10:31:00,
2013-07-01 06:36:00,61.5,57.0,29.79,West,276,0.0,2.0,85,0.00,,,0.00,VWS V14.01,2013-07-01 10:36:00,
2013-07-01 06:41:00,61.6,57.0,29.79,SW,227,0.0,3.0,85,0.00,,,0.00,VWS V14.01,2013-07-01 10:41:00,
2013-07-01 06:46:00,61.8,57.2,29.79,SSW,205,0.0,3.0,85,0.00,,,0.00,VWS V14.01,2013-07-01 10:46:00,
2013-07-01 06:51:00,61.9,57.3,29.79,South,188,0.0,3.0,85,0.00,,,0.00,VWS V14.01,2013-07-01 10:51:00,
2013-07-01 06:56:00,62.0,57.5,29.79,ENE,72,0.0,3.0,85,0.00,,,0.00,VWS V14.01,2013-07-01 10:56:00,
2013-07-01 07:00:00,62.1,57.5,29.79,SW,221,0.0,3.0,85,0.00,,,0.00,VWS V14.01,2013-07-01 11:00:00,
2013-07-01 07:01:00,62.1,57.5,29.79,SW,219,1.0,3.0,85,0.00,,,0.00,VWS V14.01,2013-07-01 11:01:00,
2013-07-01 07:06:00,62.2,57.6,29.79,SSW,202,0.0,1.0,85,0.00,,,0.00,VWS V14.01,2013-07-01 11:06:00,
2013-07-01 07:11:00,62.2,57.6,29.79,SSW,198,0.0,1.0,85,0.00,,,0.00,VWS V14.01,2013-07-01 11:11:00,
2013-07-01 07:16:00,62.3,57.7,29.79,SSW,205,0.0,1.0,85,0.00,,,0.00,VWS V14.01,2013-07-01 11:16:00,
2013-07-01 07:21:00,62.4,57.8,29.79,NE,46,0.0,2.0,85,0.00,,,0.00,VWS V14.01,2013-07-01 11:21:00,
2013-07-01 07:26:00,62.5,58.3,29.79,SSW,195,0.0,2.0,86,0.00,,,0.00,VWS V14.01,2013-07-01 11:26:00,
2013-07-01 07:31:00,62.6,58.4,29.79,SSW,204,0.0,2.0,86,0.00,,,0.00,VWS V14.01,2013-07-01 11:31:00,
2013-07-01 07:36:00,62.7,58.5,29.79,SSW,201,0.0,2.0,86,0.00,,,0.00,VWS V14.01,2013-07-01 11:36:00,
2013-07-01 07:41:00,62.8,58.6,29.79,South,184,1.0,2.0,86,0.00,,,0.00,VWS V14.01,2013-07-01 11:41:00,
2013-07-01 07:46:00,62.9,58.7,29.79,SSW,194,0.0,3.0,86,0.00,,,0.00,VWS V14.01,2013-07-01 11:46:00,
2013-07-01 07:51:00,63.0,59.1,29.79,SSW,193,0.0,3.0,87,0.00,,,0.00,VWS V14.01,2013-07-01 11:51:00,
2013-07-01 07:56:00,63.2,59.3,29.79,SSW,193,0.0,3.0,87,0.00,,,0.00,VWS V14.01,2013-07-01 11:56:00,
2013-07-01 08:00:00,63.4,59.5,29.79,West,269,0.0,3.0,87,0.00,,,0.00,VWS V14.01,2013-07-01 12:00:00,
2013-07-01 08:01:00,63.3,59.4,29.79,SW,219,0.0,3.0,87,0.00,,,0.00,VWS V14.01,2013-07-01 12:01:00,
2013-07-01 08:06:00,63.5,59.6,29.79,SSW,193,0.0,3.0,87,0.00,,,0.00,VWS V14.01,2013-07-01 12:06:00,
2013-07-01 08:11:00,63.6,59.7,29.79,SSW,197,0.0,3.0,87,0.00,,,0.00,VWS V14.01,2013-07-01 12:11:00,
2013-07-01 08:16:00,63.7,59.8,29.79,South,184,0.0,4.0,87,0.00,,,0.00,VWS V14.01,2013-07-01 12:16:00,
2013-07-01 08:20:00,63.8,59.9,29.79,SSW,193,0.0,4.0,87,0.00,,,0.00,VWS V14.01,2013-07-01 12:20:00,
2013-07-01 08:25:00,63.9,60.0,29.79,SSW,200,0.0,4.0,87,0.00,,,0.00,VWS V14.01,2013-07-01 12:25:00,
2013-07-01 08:30:00,64.0,59.7,29.79,South,186,0.0,4.0,86,0.00,,,0.00,VWS V14.01,2013-07-01 12:30:00,
2013-07-01 08:35:00,64.1,59.8,29.79,SSW,195,0.0,4.0,86,0.00,,,0.00,VWS V14.01,2013-07-01 12:35:00,
2013-07-01 08:40:00,64.3,60.0,29.79,South,181,2.0,4.0,86,0.00,,,0.00,VWS V14.01,2013-07-01 12:40:00,
2013-07-01 08:45:00,64.3,60.0,29.79,SSW,195,0.0,4.0,86,0.00,,,0.00,VWS V14.01,2013-07-01 12:45:00,
2013-07-01 08:50:00,64.4,60.1,29.79,SSW,197,0.0,5.0,86,0.00,,,0.00,VWS V14.01,2013-07-01 12:50:00,
2013-07-01 08:55:00,64.6,60.3,29.79,SSW,194,1.0,5.0,86,0.00,,,0.00,VWS V14.01,2013-07-01 12:55:00,
2013-07-01 09:00:00,64.7,60.4,29.80,SSW,201,0.0,5.0,86,0.00,,,0.00,VWS V14.01,2013-07-01 13:00:00,
2013-07-01 09:05:00,64.8,60.5,29.80,West,271,0.0,2.0,86,0.00,,,0.00,VWS V14.01,2013-07-01 13:05:00,
2013-07-01 09:10:00,65.0,60.4,29.80,SSW,195,2.0,2.0,85,0.00,,,0.00,VWS V14.01,2013-07-01 13:10:00,
2013-07-01 09:15:00,65.0,60.4,29.80,South,190,0.0,3.0,85,0.00,,,0.00,VWS V14.01,2013-07-01 13:15:00,
2013-07-01 09:20:00,65.2,60.6,29.80,SSW,200,0.0,3.0,85,0.00,,,0.00,VWS V14.01,2013-07-01 13:20:00,
2013-07-01 09:25:00,65.3,61.0,29.80,SSW,198,0.0,4.0,86,0.00,,,0.00,VWS V14.01,2013-07-01 13:25:00,
2013-07-01 09:30:00,65.5,60.9,29.80,SSW,194,0.0,4.0,85,0.00,,,0.00,VWS V14.01,2013-07-01 13:30:00,
2013-07-01 09:35:00,65.7,61.1,29.80,South,191,1.0,4.0,85,0.00,,,0.00,VWS V14.01,2013-07-01 13:35:00,
2013-07-01 09:40:00,65.9,61.3,29.79,SSW,201,0.0,4.0,85,0.00,,,0.00,VWS V14.01,2013-07-01 13:40:00,
2013-07-01 09:45:00,66.1,61.5,29.79,South,188,0.0,7.0,85,0.00,,,0.00,VWS V14.01,2013-07-01 13:45:00,
2013-07-01 09:50:00,66.4,61.8,29.79,SSW,198,2.0,7.0,85,0.00,,,0.00,VWS V14.01,2013-07-01 13:50:00,
2013-07-01 09:55:00,66.7,62.0,29.79,South,186,3.0,7.0,85,0.00,,,0.00,VWS V14.01,2013-07-01 13:55:00,
2013-07-01 10:00:00,66.8,61.8,29.79,South,187,0.0,7.0,84,0.00,,,0.00,VWS V14.01,2013-07-01 14:00:00,
2013-07-01 10:05:00,66.9,61.9,29.80,SSE,166,1.0,7.0,84,0.00,,,0.00,VWS V14.01,2013-07-01 14:05:00,
2013-07-01 10:10:00,67.0,62.0,29.79,South,183,3.0,7.0,84,0.00,,,0.00,VWS V14.01,2013-07-01 14:10:00,
2013-07-01 10:15:00,67.0,62.0,29.79,South,172,0.0,7.0,84,0.00,,,0.00,VWS V14.01,2013-07-01 14:15:00,
2013-07-01 10:20:00,67.0,62.0,29.79,South,191,1.0,7.0,84,0.00,,,0.00,VWS V14.01,2013-07-01 14:20:00,
2013-07-01 10:25:00,67.1,61.8,29.80,South,186,0.0,7.0,83,0.00,,,0.00,VWS V14.01,2013-07-01 14:25:00,
2013-07-01 10:30:00,67.1,61.8,29.80,SSW,208,1.0,7.0,83,0.00,,,0.00,VWS V14.01,2013-07-01 14:30:00,
2013-07-01 10:35:00,67.1,62.1,29.80,SSW,194,1.0,7.0,84,0.00,,,0.00,VWS V14.01,2013-07-01 14:35:00,
2013-07-01 10:40:00,67.2,61.9,29.80,SSW,197,1.0,7.0,83,0.00,,,0.00,VWS V14.01,2013-07-01 14:40:00,
2013-07-01 10:45:00,67.3,62.3,29.81,South,181,1.0,7.0,84,0.00,,,0.00,VWS V14.01,2013-07-01 14:45:00,
2013-07-01 10:50:00,67.4,62.1,29.81,South,180,1.0,7.0,83,0.00,,,0.00,VWS V14.01,2013-07-01 14:50:00,
2013-07-01 10:55:00,67.3,62.0,29.82,SSE,166,0.0,7.0,83,0.00,,,0.00,VWS V14.01,2013-07-01 14:55:00,
2013-07-01 11:00:00,67.3,62.0,29.82,ESE,123,0.0,7.0,83,0.00,,,0.00,VWS V14.01,2013-07-01 15:00:00,
2013-07-01 11:05:00,67.2,61.9,29.82,South,186,0.0,4.0,83,0.00,,,0.00,VWS V14.01,2013-07-01 15:05:00,
2013-07-01 11:10:00,67.1,62.1,29.82,SSW,199,0.0,7.0,84,0.00,,,0.00,VWS V14.01,2013-07-01 15:10:00,
2013-07-01 11:15:00,67.1,62.1,29.82,SW,224,2.0,7.0,84,0.00,,,0.00,VWS V14.01,2013-07-01 15:15:00,
2013-07-01 11:20:00,66.9,62.2,29.82,South,188,0.0,7.0,85,0.00,,,0.00,VWS V14.01,2013-07-01 15:20:00,
2013-07-01 11:25:00,66.5,61.9,29.83,South,183,1.0,7.0,85,0.00,,,0.00,VWS V14.01,2013-07-01 15:25:00,
2013-07-01 11:30:00,66.2,61.9,29.83,South,191,2.0,8.0,86,0.00,,,0.00,VWS V14.01,2013-07-01 15:30:00,
2013-07-01 11:35:00,65.9,61.9,29.83,SSW,200,0.0,8.0,87,0.00,,,0.00,VWS V14.01,2013-07-01 15:35:00,
2013-07-01 11:40:00,65.7,62.0,29.83,SSW,197,2.0,8.0,88,0.00,,,0.00,VWS V14.01,2013-07-01 15:40:00,
2013-07-01 11:45:00,65.6,62.0,29.83,SSW,196,1.0,8.0,88,0.00,,,0.00,VWS V14.01,2013-07-01 15:45:00,
2013-07-01 11:50:00,65.5,62.2,29.83,South,187,2.0,8.0,89,0.00,,,0.00,VWS V14.01,2013-07-01 15:50:00,
2013-07-01 11:55:00,65.3,62.0,29.83,South,178,1.0,8.0,89,0.01,,,0.01,VWS V14.01,2013-07-01 15:55:00,
2013-07-01 12:00:00,65.0,62.0,29.83,South,187,2.0,8.0,90,0.01,,,0.01,VWS V14.01,2013-07-01 16:00:00,
2013-07-01 12:05:00,64.9,62.2,29.83,SSW,207,1.0,2.0,91,0.01,,,0.01,VWS V14.01,2013-07-01 16:05:00,
2013-07-01 12:10:00,64.6,62.2,29.83,SSW,197,1.0,4.0,92,0.02,,,0.02,VWS V14.01,2013-07-01 16:10:00,
2013-07-01 12:15:00,64.5,62.1,29.84,SSW,204,0.0,5.0,92,0.02,,,0.02,VWS V14.01,2013-07-01 16:15:00,
2013-07-01 12:20:00,64.3,62.2,29.84,SSW,197,0.0,5.0,93,0.02,,,0.02,VWS V14.01,2013-07-01 16:20:00,
2013-07-01 12:25:00,64.3,62.2,29.84,South,190,0.0,5.0,93,0.02,,,0.02,VWS V14.01,2013-07-01 16:25:00,
2013-07-01 12:30:00,64.2,62.1,29.84,SSW,197,4.0,5.0,93,0.02,,,0.02,VWS V14.01,2013-07-01 16:30:00,
2013-07-01 12:35:00,64.2,62.4,29.84,SSW,196,1.0,8.0,94,0.02,,,0.02,VWS V14.01,2013-07-01 16:35:00,
2013-07-01 12:40:00,64.2,62.4,29.84,SSW,201,1.0,8.0,94,0.02,,,0.02,VWS V14.01,2013-07-01 16:40:00,
2013-07-01 12:45:00,64.2,62.4,29.84,SSW,198,0.0,8.0,94,0.02,,,0.02,VWS V14.01,2013-07-01 16:45:00,
2013-07-01 12:50:00,64.3,62.5,29.84,SSW,201,0.0,8.0,94,0.03,,,0.03,VWS V14.01,2013-07-01 16:50:00,
2013-07-01 12:55:00,64.3,62.8,29.84,SSW,195,1.0,8.0,95,0.03,,,0.03,VWS V14.01,2013-07-01 16:55:00,
2013-07-01 13:00:00,64.3,62.8,29.85,SSW,209,1.0,8.0,95,0.03,,,0.03,VWS V14.01,2013-07-01 17:00:00,
2013-07-01 13:05:00,64.2,62.7,29.84,South,191,0.0,4.0,95,0.03,,,0.04,VWS V14.01,2013-07-01 17:05:00,
2013-07-01 13:10:00,64.3,62.8,29.85,SSW,200,1.0,4.0,95,0.03,,,0.04,VWS V14.01,2013-07-01 17:10:00,
2013-07-01 13:15:00,64.3,62.8,29.84,SSW,195,2.0,5.0,95,0.03,,,0.04,VWS V14.01,2013-07-01 17:15:00,
2013-07-01 13:20:00,64.3,62.8,29.84,SSW,200,2.0,5.0,95,0.03,,,0.04,VWS V14.01,2013-07-01 17:20:00,
2013-07-01 13:25:00,64.3,62.8,29.84,SSW,208,1.0,5.0,95,0.04,,,0.05,VWS V14.01,2013-07-01 17:25:00,
2013-07-01 13:30:00,64.2,62.7,29.85,SSW,193,0.0,6.0,95,0.05,,,0.06,VWS V14.01,2013-07-01 17:30:00,
2013-07-01 13:35:00,64.3,63.1,29.84,South,188,1.0,6.0,96,0.05,,,0.06,VWS V14.01,2013-07-01 17:35:00,
2013-07-01 13:40:00,64.3,63.1,29.84,South,184,2.0,6.0,96,0.06,,,0.07,VWS V14.01,2013-07-01 17:40:00,
2013-07-01 13:45:00,64.5,63.3,29.84,SSW,198,0.0,6.0,96,0.07,,,0.08,VWS V14.01,2013-07-01 17:45:00,
2013-07-01 13:50:00,64.6,63.4,29.84,South,188,0.0,6.0,96,0.07,,,0.08,VWS V14.01,2013-07-01 17:50:00,
2013-07-01 13:56:00,64.9,63.7,29.84,South,190,0.0,6.0,96,0.07,,,0.08,VWS V14.01,2013-07-01 17:56:00,
2013-07-01 14:00:00,65.0,63.8,29.84,South,173,1.0,6.0,96,0.08,,,0.09,VWS V14.01,2013-07-01 18:00:00,
2013-07-01 14:01:00,64.9,63.7,29.84,SSW,204,0.0,6.0,96,0.08,,,0.09,VWS V14.01,2013-07-01 18:01:00,
2013-07-01 14:06:00,65.0,63.8,29.84,SSW,198,0.0,2.0,96,0.05,,,0.09,VWS V14.01,2013-07-01 18:06:00,
2013-07-01 14:11:00,64.8,63.6,29.84,SSW,200,1.0,4.0,96,0.05,,,0.09,VWS V14.01,2013-07-01 18:11:00,
2013-07-01 14:16:00,64.7,63.5,29.84,SSW,207,0.0,4.0,96,0.05,,,0.09,VWS V14.01,2013-07-01 18:16:00,
2013-07-01 14:21:00,64.5,63.0,29.84,South,187,0.0,8.0,95,0.05,,,0.09,VWS V14.01,2013-07-01 18:21:00,
2013-07-01 14:26:00,64.5,63.0,29.84,South,176,0.0,8.0,95,0.05,,,0.09,VWS V14.01,2013-07-01 18:26:00,
2013-07-01 14:31:00,64.6,63.4,29.84,SSW,194,1.0,8.0,96,0.05,,,0.09,VWS V14.01,2013-07-01 18:31:00,
2013-07-01 14:36:00,64.6,63.1,29.84,SSW,203,0.0,8.0,95,0.05,,,0.09,VWS V14.01,2013-07-01 18:36:00,
2013-07-01 14:41:00,64.5,63.0,29.84,SSW,196,4.0,8.0,95,0.05,,,0.09,VWS V14.01,2013-07-01 18:41:00,
2013-07-01 14:46:00,64.4,62.9,29.84,SSW,198,4.0,8.0,95,0.05,,,0.09,VWS V14.01,2013-07-01 18:46:00,
2013-07-01 14:51:00,64.3,62.8,29.83,SSW,205,1.0,8.0,95,0.05,,,0.09,VWS V14.01,2013-07-01 18:51:00,
2013-07-01 14:55:00,64.3,62.8,29.84,SSW,201,5.0,8.0,95,0.06,,,0.10,VWS V14.01,2013-07-01 18:55:00,
2013-07-01 15:00:00,64.2,62.7,29.83,SSE,165,0.0,8.0,95,0.06,,,0.10,VWS V14.01,2013-07-01 19:00:00,
2013-07-01 15:05:00,64.3,62.8,29.83,SSW,204,4.0,8.0,95,0.01,,,0.10,VWS V14.01,2013-07-01 19:05:00,
2013-07-01 15:10:00,64.3,62.8,29.83,SW,228,5.0,8.0,95,0.01,,,0.10,VWS V14.01,2013-07-01 19:10:00,
2013-07-01 15:15:00,64.4,62.9,29.83,South,183,5.0,8.0,95,0.01,,,0.10,VWS V14.01,2013-07-01 19:15:00,
2013-07-01 15:20:00,64.5,63.0,29.83,SE,146,4.0,8.0,95,0.01,,,0.10,VWS V14.01,2013-07-01 19:20:00,
2013-07-01 15:25:00,64.5,63.0,29.83,South,186,2.0,8.0,95,0.01,,,0.10,VWS V14.01,2013-07-01 19:25:00,
2013-07-01 15:30:00,64.6,63.1,29.83,SSW,205,5.0,9.0,95,0.01,,,0.10,VWS V14.01,2013-07-01 19:30:00,
2013-07-01 15:35:00,64.7,62.9,29.83,SSW,195,5.0,9.0,94,0.01,,,0.10,VWS V14.01,2013-07-01 19:35:00,
2013-07-01 15:40:00,64.8,63.3,29.82,South,183,2.0,9.0,95,0.01,,,0.10,VWS V14.01,2013-07-01 19:40:00,
2013-07-01 15:45:00,64.8,63.0,29.83,South,181,2.0,9.0,94,0.01,,,0.10,VWS V14.01,2013-07-01 19:45:00,
2013-07-01 15:50:00,64.8,62.7,29.83,SSW,197,1.0,9.0,93,0.01,,,0.10,VWS V14.01,2013-07-01 19:50:00,
2013-07-01 15:55:00,65.0,62.9,29.83,South,181,3.0,11.0,93,0.01,,,0.10,VWS V14.01,2013-07-01 19:55:00,
2013-07-01 16:00:00,65.0,62.6,29.83,SW,214,4.0,12.0,92,0.01,,,0.10,VWS V14.01,2013-07-01 20:00:00,
2013-07-01 16:05:00,65.4,63.0,29.83,South,177,2.0,6.0,92,0.00,,,0.10,VWS V14.01,2013-07-01 20:05:00,
2013-07-01 16:10:00,65.6,62.9,29.83,SSE,158,1.0,8.0,91,0.00,,,0.10,VWS V14.01,2013-07-01 20:10:00,
2013-07-01 16:15:00,65.8,62.5,29.83,South,190,1.0,11.0,89,0.00,,,0.10,VWS V14.01,2013-07-01 20:15:00,
2013-07-01 16:20:00,66.0,63.0,29.83,NNW,347,0.0,11.0,90,0.00,,,0.10,VWS V14.01,2013-07-01 20:20:00,
2013-07-01 16:25:00,66.4,63.1,29.83,SSW,198,5.0,11.0,89,0.00,,,0.10,VWS V14.01,2013-07-01 20:25:00,
2013-07-01 16:30:00,66.5,62.8,29.84,SSW,194,1.0,11.0,88,0.00,,,0.10,VWS V14.01,2013-07-01 20:30:00,
2013-07-01 16:35:00,66.3,62.6,29.84,SSE,165,0.0,11.0,88,0.00,,,0.10,VWS V14.01,2013-07-01 20:35:00,
2013-07-01 16:40:00,66.1,62.5,29.84,SSE,158,1.0,11.0,88,0.00,,,0.10,VWS V14.01,2013-07-01 20:40:00,
2013-07-01 16:46:00,66.0,62.7,29.84,SSW,212,2.0,11.0,89,0.00,,,0.10,VWS V14.01,2013-07-01 20:46:00,
2013-07-01 16:51:00,66.0,62.7,29.84,South,187,3.0,11.0,89,0.00,,,0.10,VWS V14.01,2013-07-01 20:51:00,
2013-07-01 16:56:00,65.9,62.2,29.85,SE,141,2.0,11.0,88,0.00,,,0.10,VWS V14.01,2013-07-01 20:56:00,
2013-07-01 17:00:00,65.8,62.5,29.85,SSW,193,5.0,11.0,89,0.00,,,0.10,VWS V14.01,2013-07-01 21:00:00,
2013-07-01 17:01:00,65.8,62.5,29.85,South,179,3.0,11.0,89,0.00,,,0.10,VWS V14.01,2013-07-01 21:01:00,
2013-07-01 17:06:00,65.6,62.3,29.85,South,183,0.0,7.0,89,0.00,,,0.10,VWS V14.01,2013-07-01 21:06:00,
2013-07-01 17:11:00,65.4,62.1,29.85,SSW,206,1.0,7.0,89,0.00,,,0.10,VWS V14.01,2013-07-01 21:11:00,
2013-07-01 17:16:00,65.3,62.3,29.85,SW,215,5.0,9.0,90,0.00,,,0.10,VWS V14.01,2013-07-01 21:16:00,
2013-07-01 17:54:00,65.8,62.2,29.85,SSW,194,0.0,0.0,88,0.00,,,0.10,VWS V14.01,2013-07-01 21:54:00,
2013-07-01 17:59:00,65.9,62.2,29.86,SE,146,2.0,6.0,88,0.00,,,0.10,VWS V14.01,2013-07-01 21:59:00,
2013-07-01 18:04:00,65.9,62.2,29.86,SSW,200,3.0,8.0,88,0.00,,,0.10,VWS V14.01,2013-07-01 22:04:00,
2013-07-01 18:09:00,65.8,62.2,29.86,SW,226,3.0,9.0,88,0.00,,,0.10,VWS V14.01,2013-07-01 22:09:00,
2013-07-01 18:14:00,65.8,62.2,29.86,South,188,2.0,9.0,88,0.00,,,0.10,VWS V14.01,2013-07-01 22:14:00,
2013-07-01 18:19:00,65.8,62.2,29.86,SSW,198,3.0,9.0,88,0.00,,,0.10,VWS V14.01,2013-07-01 22:19:00,
2013-07-01 18:24:00,65.8,62.2,29.86,South,177,1.0,9.0,88,0.00,,,0.10,VWS V14.01,2013-07-01 22:24:00,
2013-07-01 18:29:00,65.8,62.2,29.85,South,169,2.0,9.0,88,0.00,,,0.10,VWS V14.01,2013-07-01 22:29:00,
2013-07-01 18:34:00,65.9,62.2,29.85,SSW,201,2.0,9.0,88,0.00,,,0.10,VWS V14.01,2013-07-01 22:34:00,
2013-07-01 18:39:00,66.0,62.3,29.85,South,191,3.0,9.0,88,0.00,,,0.10,VWS V14.01,2013-07-01 22:39:00,
2013-07-01 18:44:00,66.2,62.5,29.86,SSE,162,1.0,9.0,88,0.00,,,0.10,VWS V14.01,2013-07-01 22:44:00,
2013-07-01 18:49:00,66.1,62.1,29.86,South,187,0.0,9.0,87,0.00,,,0.10,VWS V14.01,2013-07-01 22:49:00,
2013-07-01 18:54:00,66.1,62.1,29.85,South,186,1.0,9.0,87,0.00,,,0.10,VWS V14.01,2013-07-01 22:54:00,
2013-07-01 18:59:00,66.0,62.0,29.85,South,183,3.0,11.0,87,0.00,,,0.10,VWS V14.01,2013-07-01 22:59:00,
2013-07-01 19:04:00,66.0,62.0,29.85,South,191,4.0,5.0,87,0.00,,,0.10,VWS V14.01,2013-07-01 23:04:00,
2013-07-01 19:09:00,65.9,61.9,29.85,South,179,2.0,9.0,87,0.00,,,0.10,VWS V14.01,2013-07-01 23:09:00,
2013-07-01 19:14:00,65.9,61.9,29.85,South,187,2.0,9.0,87,0.00,,,0.10,VWS V14.01,2013-07-01 23:14:00,
2013-07-01 19:19:00,65.9,61.9,29.86,WSW,245,1.0,9.0,87,0.00,,,0.10,VWS V14.01,2013-07-01 23:19:00,
2013-07-01 19:24:00,65.8,62.2,29.86,SSW,194,0.0,9.0,88,0.00,,,0.10,VWS V14.01,2013-07-01 23:24:00,
2013-07-01 19:29:00,65.8,62.2,29.86,WSW,242,0.0,9.0,88,0.00,,,0.10,VWS V14.01,2013-07-01 23:29:00,
2013-07-01 19:34:00,65.7,61.7,29.86,South,191,1.0,9.0,87,0.00,,,0.10,VWS V14.01,2013-07-01 23:34:00,
2013-07-01 19:39:00,65.6,62.0,29.86,SSW,193,3.0,9.0,88,0.00,,,0.10,VWS V14.01,2013-07-01 23:39:00,
2013-07-01 19:44:00,65.6,61.6,29.86,SSW,205,4.0,9.0,87,0.00,,,0.10,VWS V14.01,2013-07-01 23:44:00,
2013-07-01 19:49:00,65.5,61.9,29.86,WSW,239,2.0,9.0,88,0.00,,,0.10,VWS V14.01,2013-07-01 23:49:00,
2013-07-01 19:54:00,65.4,61.8,29.86,SSW,193,0.0,9.0,88,0.00,,,0.10,VWS V14.01,2013-07-01 23:54:00,
2013-07-01 19:59:00,65.4,61.4,29.86,SSW,194,3.0,9.0,87,0.00,,,0.10,VWS V14.01,2013-07-01 23:59:00,
2013-07-01 20:04:00,65.3,61.3,29.86,South,181,1.0,3.0,87,0.00,,,0.10,VWS V14.01,2013-07-02 00:04:00,
2013-07-01 20:09:00,65.2,61.2,29.86,SW,218,2.0,4.0,87,0.00,,,0.10,VWS V14.01,2013-07-02 00:09:00,
2013-07-01 20:14:00,65.2,61.2,29.87,South,174,0.0,7.0,87,0.00,,,0.10,VWS V14.01,2013-07-02 00:14:00,
2013-07-01 20:19:00,65.1,61.1,29.87,South,190,3.0,9.0,87,0.00,,,0.10,VWS V14.01,2013-07-02 00:19:00,
2013-07-01 20:24:00,65.1,61.1,29.87,SSW,204,1.0,9.0,87,0.00,,,0.10,VWS V14.01,2013-07-02 00:24:00,
2013-07-01 20:29:00,65.0,61.0,29.87,South,191,6.0,9.0,87,0.00,,,0.10,VWS V14.01,2013-07-02 00:29:00,
2013-07-01 20:34:00,65.0,61.0,29.88,South,190,0.0,9.0,87,0.00,,,0.10,VWS V14.01,2013-07-02 00:34:00,
2013-07-01 20:39:00,65.0,61.0,29.88,South,191,1.0,9.0,87,0.00,,,0.10,VWS V14.01,2013-07-02 00:39:00,
2013-07-01 20:44:00,65.0,60.0,29.88,SSW,194,2.0,9.0,84,0.00,,,0.10,VWS V14.01,2013-07-02 00:44:00,
2013-07-01 20:49:00,65.1,59.8,29.88,SSW,212,1.0,9.0,83,0.00,,,0.10,VWS V14.01,2013-07-02 00:49:00,
2013-07-01 20:54:00,65.1,59.8,29.87,SSW,197,3.0,9.0,83,0.00,,,0.10,VWS V14.01,2013-07-02 00:54:00,
2013-07-01 20:59:00,65.1,59.8,29.87,South,170,0.0,9.0,83,0.00,,,0.10,VWS V14.01,2013-07-02 00:59:00,
2013-07-01 21:04:00,65.1,59.8,29.87,SSW,200,2.0,5.0,83,0.00,,,0.10,VWS V14.01,2013-07-02 01:04:00,
2013-07-01 21:09:00,65.1,59.8,29.87,SSW,209,5.0,8.0,83,0.00,,,0.10,VWS V14.01,2013-07-02 01:09:00,
2013-07-01 21:14:00,65.1,59.8,29.87,South,191,1.0,8.0,83,0.00,,,0.10,VWS V14.01,2013-07-02 01:14:00,
2013-07-01 21:19:00,65.1,59.8,29.88,SSW,196,2.0,8.0,83,0.00,,,0.10,VWS V14.01,2013-07-02 01:19:00,
2013-07-01 21:24:00,65.1,59.8,29.88,SSW,195,1.0,8.0,83,0.00,,,0.10,VWS V14.01,2013-07-02 01:24:00,
2013-07-01 21:29:00,65.0,59.7,29.89,SSW,200,0.0,8.0,83,0.00,,,0.10,VWS V14.01,2013-07-02 01:29:00,
2013-07-01 21:34:00,65.0,59.7,29.89,SSW,199,0.0,8.0,83,0.00,,,0.10,VWS V14.01,2013-07-02 01:34:00,
2013-07-01 21:39:00,65.0,59.7,29.89,South,188,1.0,8.0,83,0.00,,,0.10,VWS V14.01,2013-07-02 01:39:00,
2013-07-01 21:44:00,65.0,59.7,29.88,SSW,193,2.0,8.0,83,0.00,,,0.10,VWS V14.01,2013-07-02 01:44:00,
2013-07-01 21:49:00,64.9,59.6,29.88,South,181,1.0,8.0,83,0.00,,,0.10,VWS V14.01,2013-07-02 01:49:00,
2013-07-01 21:54:00,64.9,59.6,29.88,SSW,194,0.0,8.0,83,0.00,,,0.10,VWS V14.01,2013-07-02 01:54:00,
2013-07-01 21:59:00,64.9,59.6,29.87,South,174,4.0,8.0,83,0.00,,,0.10,VWS V14.01,2013-07-02 01:59:00,
2013-07-01 22:04:00,64.9,59.6,29.88,SSW,195,3.0,3.0,83,0.00,,,0.10,VWS V14.01,2013-07-02 02:04:00,
2013-07-01 22:09:00,64.9,59.6,29.88,SSW,210,1.0,5.0,83,0.00,,,0.10,VWS V14.01,2013-07-02 02:09:00,
2013-07-01 22:14:00,64.8,59.5,29.87,South,187,0.0,5.0,83,0.00,,,0.10,VWS V14.01,2013-07-02 02:14:00,
2013-07-01 22:19:00,64.8,59.5,29.87,South,190,1.0,5.0,83,0.00,,,0.10,VWS V14.01,2013-07-02 02:19:00,
2013-07-01 22:24:00,64.7,59.4,29.88,South,184,0.0,5.0,83,0.00,,,0.10,VWS V14.01,2013-07-02 02:24:00,
2013-07-01 22:29:00,64.7,59.4,29.88,SSW,194,2.0,5.0,83,0.00,,,0.10,VWS V14.01,2013-07-02 02:29:00,
2013-07-01 22:34:00,64.8,59.5,29.88,SSW,197,3.0,6.0,83,0.00,,,0.10,VWS V14.01,2013-07-02 02:34:00,
2013-07-01 22:39:00,64.8,59.5,29.88,South,191,3.0,6.0,83,0.00,,,0.10,VWS V14.01,2013-07-02 02:39:00,
2013-07-01 22:44:00,64.8,59.5,29.88,South,184,1.0,6.0,83,0.00,,,0.10,VWS V14.01,2013-07-02 02:44:00,
2013-07-01 22:49:00,64.7,59.4,29.88,South,188,0.0,6.0,83,0.00,,,0.10,VWS V14.01,2013-07-02 02:49:00,
2013-07-01 22:54:00,64.7,59.4,29.88,SSW,193,0.0,6.0,83,0.00,,,0.10,VWS V14.01,2013-07-02 02:54:00,
2013-07-01 22:59:00,64.7,59.4,29.87,SSW,203,3.0,6.0,83,0.00,,,0.10,VWS V14.01,2013-07-02 02:59:00,
2013-07-01 23:04:00,64.7,59.4,29.86,SSW,194,0.0,3.0,83,0.00,,,0.10,VWS V14.01,2013-07-02 03:04:00,
2013-07-01 23:09:00,64.4,59.1,29.85,SSW,201,0.0,3.0,83,0.00,,,0.10,VWS V14.01,2013-07-02 03:09:00,
2013-07-01 23:14:00,64.2,58.9,29.85,South,174,1.0,4.0,83,0.00,,,0.10,VWS V14.01,2013-07-02 03:14:00,
2013-07-01 23:19:00,63.9,59.0,29.85,South,184,0.0,4.0,84,0.00,,,0.10,VWS V14.01,2013-07-02 03:19:00,
2013-07-01 23:24:00,63.8,58.9,29.85,South,191,0.0,4.0,84,0.00,,,0.10,VWS V14.01,2013-07-02 03:24:00,
2013-07-01 23:29:00,63.6,58.7,29.85,SSW,206,0.0,4.0,84,0.00,,,0.10,VWS V14.01,2013-07-02 03:29:00,
2013-07-01 23:34:00,63.5,58.6,29.85,SSW,198,0.0,4.0,84,0.00,,,0.10,VWS V14.01,2013-07-02 03:34:00,
2013-07-01 23:39:00,63.4,58.5,29.85,SSW,200,1.0,4.0,84,0.00,,,0.10,VWS V14.01,2013-07-02 03:39:00,
2013-07-01 23:44:00,63.3,58.7,29.85,NE,49,0.0,4.0,85,0.00,,,0.10,VWS V14.01,2013-07-02 03:44:00,
2013-07-01 23:49:00,63.2,58.6,29.86,WSW,238,1.0,4.0,85,0.00,,,0.10,VWS V14.01,2013-07-02 03:49:00,
2013-07-01 23:54:00,63.2,59.0,29.86,WSW,238,0.0,4.0,86,0.00,,,0.10,VWS V14.01,2013-07-02 03:54:00,
2013-07-01 23:59:00,63.1,58.8,29.86,North,356,2.0,4.0,86,0.00,,,0.10,VWS V14.01,2013-07-02 03:59:00,